Wind_Speed
6 8 9 8 8 7 7 7 7 8 9 10 10 11 11 12 13 14 15 16 16 17 18 18 18 19 21 21 20 18 18 18 18 20 23 23 19 18 18 17 17 17 17 16 16 16 16 16 16 17 18 18 18 18 18 18 17 17 16 16 16 17 18 18 17 17 17 17 18 19 19 19 20 20 20 20 19 19 18 18 17 16 15 15 14
6 7 8 7 6 5 5 5 5 6 7 7 8 9 10 11 12 14 15 15 15 15 15 15 16 17 19 20 19 18 17 17 18 19 21 21 18 17 18 17 17 17 17 16 16 16 16 16 16 16 17 18 18 19 19 19 18 18 17 17 17 17 18 19 19 19 18 18 18 19 19 20 20 20 21 21 21 21 20 20 19 18 17 17 16
6 6 6 4 3 3 3 4 4 4 5 6 6 7 8 10 11 12 13 14 13 12 12 12 15 17 19 20 19 17 15 15 16 17 17 19 19 19 17 15 16 16 16 16 16 16 16 16 16 16 16 17 18 19 20 20 20 19 19 19 19 19 19 20 20 21 21 21 20 19 19 20 20 20 21 21 22 22 22 21 20 20 19 19 18
5 5 4 2 2 3 3 3 3 4 5 5 5 6 7 8 9 10 11 11 11 11 10 11 13 14 16 18 18 15 12 12 14 15 14 16 18 18 16 14 14 15 15 16 16 16 15 15 15 15 15 16 17 19 20 21 21 21 21 21 21 21 21 21 21 21 22 22 22 22 21 21 21 21 22 22 22 22 22 22 21 21 21 21 20
4 3 2 2 3 3 3 3 3 4 4 5 5 5 6 6 7 8 9 9 10 10 9 9 10 12 14 17 17 14 11 10 12 14 13 15 17 16 16 14 13 14 14 15 16 16 15 14 14 15 15 16 17 18 20 21 22 22 23 23 23 23 23 23 22 22 22 23 23 24 24 24 23 23 23 23 23 23 23 22 22 22 22 22 21
5 3 3 3 4 4 4 4 4 4 5 5 5 5 5 5 7 8 8 8 8 9 9 9 10 11 13 15 15 12 9 9 11 12 10 12 15 15 15 14 13 13 14 14 15 15 14 14 14 14 15 16 17 19 21 22 23 23 23 24 24 24 24 24 24 23 23 23 24 24 25 26 26 25 25 24 24 23 23 23 23 23 23 23 23
5 4 4 4 5 5 4 4 5 5 5 5 5 5 5 5 6 7 7 7 7 7 8 9 10 11 13 14 13 9 7 8 9 10 8 9 12 13 13 13 12 12 13 13 13 13 13 13 13 14 15 16 18 20 21 22 23 23 23 24 24 24 24 24 24 24 24 25 25 25 26 27 27 27 27 26 25 25 25 24 25 25 24 24 24
5 5 4 5 5 5 5 5 5 5 5 5 6 6 5 5 6 7 6 6 5 5 6 8 9 11 13 14 12 9 8 8 8 8 7 7 8 9 11 12 11 11 12 11 11 11 12 12 13 14 14 15 16 19 21 23 23 23 23 23 24 24 24 24 24 24 25 25 26 27 28 28 28 29 29 29 28 27 27 26 26 26 26 26 26
5 5 5 5 6 6 6 6 6 6 6 6 7 7 6 5 6 6 6 5 5 4 5 6 7 8 10 12 12 11 9 8 9 8 6 7 8 7 9 11 11 10 10 10 10 11 12 13 13 12 12 13 13 15 18 21 23 23 23 23 24 24 24 25 25 25 25 25 26 27 28 29 30 30 31 31 31 30 29 29 29 28 28 28 28
6 6 6 6 6 7 7 7 7 6 6 7 8 7 7 5 5 5 6 5 4 3 4 4 4 5 6 7 10 11 10 8 9 9 7 8 9 8 8 9 10 9 8 9 10 11 12 13 13 11 10 10 10 12 13 17 21 23 23 23 24 24 24 24 25 25 26 26 26 25 26 27 29 31 32 33 33 32 32 31 31 30 30 29 29
7 7 6 6 6 6 7 7 7 7 7 8 7 8 7 6 5 5 6 6 4 3 3 4 4 4 4 4 6 8 7 7 8 9 9 9 10 10 10 10 10 10 9 9 10 11 13 13 12 10 9 9 9 10 10 12 15 19 21 22 24 24 24 24 25 26 26 26 26 26 26 27 28 29 31 33 34 34 33 33 33 33 32 32 31
6 6 7 7 7 6 6 7 7 7 7 7 7 7 7 7 6 5 6 6 5 4 4 4 4 4 3 4 5 6 6 8 8 8 9 9 10 10 10 10 10 10 10 10 10 11 12 12 11 9 9 9 9 9 9 9 11 14 17 20 22 22 22 23 25 25 25 25 26 27 27 28 28 28 29 31 33 34 34 34 34 34 34 34 34
5 6 7 7 7 6 6 6 7 7 7 7 7 7 8 7 7 6 6 6 6 5 4 4 4 4 4 5 6 6 7 8 8 7 8 8 8 8 8 9 8 8 8 9 9 9 10 9 8 8 8 8 8 8 9 10 10 12 14 18 19 19 19 22 23 23 24 24 25 26 26 27 28 28 28 28 30 33 34 34 34 34 35 35 35
5 6 7 7 7 6 6 6 6 7 7 6 6 6 7 7 8 8 8 7 6 6 5 5 5 5 5 6 7 6 6 5 6 6 6 6 6 6 7 8 7 7 7 7 7 8 8 8 7 6 7 6 6 7 8 9 9 10 13 16 16 16 17 19 20 20 21 22 23 24 25 26 26 27 27 27 28 30 32 34 34 34 35 35 35
7 8 8 7 6 5 5 6 6 7 6 5 5 6 6 7 8 9 9 8 7 7 6 5 6 7 6 7 7 6 6 6 6 6 5 5 5 6 7 7 7 7 7 6 7 7 7 7 7 7 7 6 5 6 6 6 7 8 10 11 11 11 13 14 16 17 19 20 20 22 22 23 24 25 26 27 27 29 30 32 33 33 33 33 34
9 9 8 7 6 5 6 6 7 7 6 6 6 6 6 6 6 7 8 8 8 8 7 6 6 6 6 7 7 7 7 7 8 8 7 7 6 6 7 7 7 6 6 6 7 8 7 7 7 7 7 6 7 7 7 7 8 8 9 8 7 6 7 8 10 12 15 18 19 20 20 20 21 23 25 27 28 29 30 31 31 31 31 31 32
10 9 7 6 6 6 6 7 7 8 7 7 8 7 7 5 5 6 7 7 7 7 8 8 7 6 6 7 8 8 8 8 8 9 9 9 8 7 7 7 8 7 7 7 8 8 8 8 8 8 8 8 8 9 8 8 9 10 11 10 9 8 7 7 8 9 11 13 15 17 18 19 20 21 24 26 28 29 30 30 29 29 29 29 30
10 9 7 6 6 6 7 8 8 9 9 9 10 10 9 7 6 5 6 6 7 7 8 8 8 7 6 6 8 8 8 9 9 9 9 9 9 8 8 8 8 9 8 8 9 9 9 10 9 9 9 9 9 9 10 10 10 11 11 11 11 10 10 9 10 10 11 11 12 13 16 16 16 18 20 22 24 27 28 28 28 27 27 28 28
10 9 7 7 7 7 8 8 9 10 10 11 11 12 11 9 8 8 7 6 6 7 8 8 8 8 8 7 8 9 9 9 10 9 9 10 10 10 10 9 9 9 8 8 9 10 10 10 10 9 10 10 10 11 11 11 11 12 12 12 12 12 12 11 11 12 13 13 12 13 14 14 13 14 16 18 21 22 24 25 25 25 26 26 26
10 9 8 7 8 8 8 9 10 10 10 11 12 12 12 11 10 9 9 8 7 7 8 8 9 9 9 9 9 9 10 10 10 10 10 11 11 11 11 10 9 9 9 9 10 11 11 11 11 10 10 11 11 12 12 13 13 13 13 13 13 13 13 13 13 14 14 14 14 13 13 13 13 12 12 14 16 17 19 21 22 23 23 23 23
10 9 8 8 9 9 9 9 11 11 11 12 13 12 12 11 10 9 9 8 8 8 9 8 9 9 9 10 10 10 10 11 11 11 12 12 12 11 11 10 9 9 9 10 11 12 11 11 11 11 11 12 13 13 13 14 14 14 14 14 14 14 14 14 14 15 15 16 16 15 15 15 15 14 13 12 13 14 16 19 20 21 21 20 19
12 10 9 10 10 11 10 11 12 13 13 13 13 13 12 11 10 10 9 8 8 8 9 9 9 9 9 10 10 11 12 12 12 13 13 13 12 11 10 10 9 9 10 11 11 11 11 11 12 13 13 13 13 14 14 14 15 15 15 15 15 15 16 16 16 16 17 17 18 19 18 18 17 16 15 14 13 14 15 17 19 21 21 21 20
13 12 11 11 12 13 13 13 13 14 13 13 12 12 12 11 11 10 9 8 7 7 8 9 9 9 10 10 11 12 12 13 14 14 14 13 12 10 10 10 10 11 12 13 12 12 12 12 13 14 14 14 14 14 15 15 15 15 15 16 16 16 17 17 17 17 18 19 20 21 21 20 19 19 18 17 17 16 16 17 19 20 21 22 23
14 13 12 12 14 15 16 15 14 15 14 12 11 11 11 11 10 10 8 8 7 7 7 8 9 10 10 11 11 12 13 13 13 13 13 13 12 11 11 11 11 13 13 13 13 12 13 13 14 14 14 14 14 14 14 15 15 15 16 16 16 16 17 18 18 18 19 20 21 22 22 22 21 21 21 20 20 20 19 20 20 21 22 23 24
15 15 13 14 14 15 16 15 15 15 15 13 12 11 10 10 9 8 8 7 7 7 7 8 9 10 11 11 11 12 12 12 12 13 13 12 12 11 11 11 13 14 14 13 13 13 13 14 14 14 14 13 13 14 14 14 15 15 15 16 16 16 17 17 18 19 19 20 21 21 22 22 22 22 22 22 22 22 22 22 22 22 23 23 24
15 15 15 14 14 14 14 14 15 15 14 13 12 11 10 9 8 8 7 7 8 8 8 8 9 10 10 11 12 12 12 12 13 13 13 12 12 11 11 12 13 14 13 12 12 12 13 13 13 13 13 13 13 13 13 13 14 14 15 15 16 16 17 17 18 18 19 19 19 20 20 21 21 21 21 21 21 22 23 23 23 23 23 24 24
15 15 15 14 14 13 13 13 14 14 13 12 11 10 10 9 8 7 7 7 7 8 8 8 9 9 10 10 11 11 11 11 11 12 12 11 11 10 11 13 13 13 12 12 11 12 13 13 13 13 13 13 12 12 12 12 13 13 13 14 14 15 15 16 16 16 17 17 17 18 18 18 18 19 19 19 19 20 21 22 23 23 24 24 24
14 13 13 14 13 13 12 13 13 13 13 12 11 10 9 9 8 8 8 8 8 8 8 9 9 9 9 10 10 10 10 10 10 10 9 9 8 9 11 12 12 12 12 12 12 12 13 13 13 13 13 12 12 11 11 11 12 12 12 12 13 13 14 14 14 14 15 15 15 15 16 16 16 16 16 17 17 17 18 19 20 21 22 23 23
16 13 12 13 13 13 13 12 13 12 12 12 11 10 10 9 9 9 9 9 9 10 10 10 10 10 10 11 11 11 10 10 9 9 8 7 7 8 10 11 11 11 12 12 12 13 13 13 13 13 13 13 13 13 12 12 12 12 12 12 12 12 13 13 13 13 13 14 14 14 14 15 15 15 15 15 16 16 16 17 17 18 19 20 21
20 17 16 16 15 14 14 13 13 13 13 12 11 11 10 10 10 10 10 11 11 12 11 11 11 11 11 11 11 10 9 8 8 8 7 7 7 7 9 10 11 11 12 12 13 13 13 14 14 14 14 13 13 13 13 12 12 12 12 12 12 12 12 13 13 13 13 13 13 14 14 15 15 15 15 16 16 16 17 17 17 17 18 18 19
21 20 19 18 17 16 15 14 13 13 13 12 12 12 12 12 12 12 12 13 13 13 12 11 10 10 9 9 10 9 8 8 7 8 8 8 7 7 7 9 9 10 11 12 13 13 14 14 15 14 14 13 13 13 13 12 12 12 12 12 12 12 12 12 12 12 12 13 13 13 14 15 15 16 17 17 17 17 18 18 18 18 19 19 19
20 20 18 18 17 15 14 14 13 13 13 13 13 12 12 13 13 13 13 14 14 13 12 10 9 8 8 8 9 8 7 7 7 7 7 7 6 6 6 7 7 8 9 11 12 12 13 13 13 12 12 13 12 12 11 11 11 11 11 11 11 10 10 10 11 11 12 12 12 13 14 15 16 17 17 18 19 19 19 19 20 20 20 21 21
18 17 16 15 15 14 14 13 12 12 12 12 12 12 12 12 12 12 13 13 13 12 11 10 9 8 8 8 7 7 6 6 7 8 7 7 7 7 7 7 7 8 9 9 10 10 11 11 11 11 12 13 13 12 11 11 11 11 11 10 9 9 9 9 10 11 12 13 14 14 15 16 17 18 19 19 20 20 20 21 21 21 22 22 23
17 15 13 13 13 13 13 12 12 12 11 11 11 12 12 12 12 12 12 12 12 11 10 9 9 9 9 9 9 8 8 9 10 10 9 9 9 9 9 9 9 9 9 10 9 10 11 12 12 13 13 14 14 13 13 12 12 13 12 11 10 9 10 11 13 14 15 16 17 18 18 19 19 20 21 22 22 23 23 23 23 23 23 23 24
15 13 12 12 13 13 12 12 12 11 11 12 13 13 13 13 12 12 12 12 10 10 10 10 11 11 11 11 11 11 11 12 13 13 13 12 11 11 12 12 12 12 12 12 12 12 12 13 14 15 16 16 16 15 15 15 15 15 14 12 12 13 14 16 17 18 19 20 21 22 23 23 23 24 24 25 25 26 26 26 26 26 26 26 26
13 12 12 12 12 13 13 12 12 12 13 14 14 14 13 13 12 11 10 10 10 11 12 12 12 12 12 12 12 12 12 13 13 14 15 15 15 15 16 16 16 15 15 15 15 15 15 15 15 16 17 18 19 18 17 17 17 15 14 14 15 17 18 19 21 21 22 24 25 26 27 28 29 29 29 29 29 29 30 30 31 31 30 30 30
14 13 13 13 13 14 14 14 14 15 15 16 15 13 13 13 12 10 9 9 11 13 14 14 13 13 13 14 15 15 15 16 17 17 17 18 19 20 20 20 18 18 19 19 19 18 18 18 18 19 19 19 20 21 21 21 20 18 18 19 19 20 21 22 23 24 26 27 29 30 31 32 33 34 34 34 34 34 34 34 34 34 35 35 34
17 16 16 16 15 15 16 16 17 17 17 17 16 14 14 14 13 11 11 12 13 15 15 15 16 16 17 18 18 18 18 19 20 20 19 19 20 21 22 22 21 20 20 20 20 21 21 22 23 23 23 22 21 22 23 24 24 24 24 24 23 23 25 26 26 27 29 30 30 31 32 33 34 35 36 37 37 38 38 37 37 37 37 38 38
18 18 18 18 17 17 17 18 19 20 20 18 17 17 16 15 14 14 14 15 15 16 16 17 18 19 19 19 20 20 20 20 21 21 21 22 23 24 24 24 24 23 21 20 21 23 25 26 27 27 27 26 25 25 25 26 27 28 28 27 26 27 28 29 30 31 32 32 33 33 33 34 34 35 36 37 38 39 40 40 40 39 39 39 40
19 19 20 19 18 17 17 19 21 21 20 19 18 18 17 16 17 17 17 18 18 18 18 18 19 19 19 20 21 22 22 22 23 24 25 27 27 27 26 26 26 26 24 23 23 25 26 28 29 30 30 30 30 29 28 28 29 30 30 30 30 30 31 33 33 34 35 36 36 37 37 36 36 36 37 38 38 39 40 41 41 42 42 42 42
20 20 20 21 21 20 19 20 21 21 21 20 20 20 20 19 19 20 20 20 20 20 20 20 20 20 20 22 23 24 24 25 26 27 28 29 30 29 29 28 28 28 27 27 27 28 28 29 30 31 32 33 33 32 32 32 32 31 31 32 32 33 34 35 36 37 38 39 39 39 39 38 37 38 38 39 40 40 40 41 41 42 43 44 45
21 20 19 20 21 22 22 22 22 23 23 22 22 22 22 22 22 21 21 22 22 23 22 22 23 23 25 26 27 27 27 27 29 29 30 30 31 32 31 30 30 29 29 29 30 31 30 30 31 32 34 35 35 36 36 35 35 34 33 34 34 34 35 36 37 38 39 39 39 38 39 39 39 38 38 39 40 41 42 43 43 43 44 44 46
22 21 20 20 20 21 22 23 23 24 23 23 23 23 24 24 24 24 24 24 25 25 25 25 26 27 29 30 30 30 29 30 31 31 32 32 33 33 33 33 32 31 30 30 31 32 32 32 32 33 34 36 37 38 38 38 37 36 35 35 35 35 36 36 37 39 40 40 38 36 37 39 39 39 39 41 42 43 44 45 45 45 45 46 46
22 24 24 23 22 21 21 22 23 24 24 24 24 25 25 26 26 26 27 27 28 28 28 29 30 30 31 31 32 32 32 32 33 33 34 35 35 36 36 36 35 33 32 32 32 32 32 32 33 34 35 37 38 39 39 38 37 36 36 36 35 36 37 37 38 38 39 40 39 37 36 38 40 40 41 43 44 45 46 47 47 47 46 46 46
22 24 25 25 24 23 23 24 25 26 27 27 28 28 29 29 29 30 30 30 31 31 32 32 33 33 33 33 33 34 35 36 36 35 36 37 38 39 39 38 37 36 34 33 33 32 32 32 33 35 37 39 39 39 38 37 37 36 36 36 36 37 38 38 38 38 39 40 40 39 38 39 40 42 43 45 46 47 47 47 47 47 46 46 45
26 26 27 27 26 26 26 27 28 29 30 31 32 33 33 33 33 33 34 34 35 35 35 35 36 36 36 36 36 36 38 39 39 38 38 38 39 41 41 39 38 38 37 36 35 34 33 34 35 36 38 40 42 42 41 40 41 41 40 40 39 39 38 39 39 39 40 41 41 40 41 41 42 44 45 46 47 47 47 47 46 45 45 45 45
27 27 28 27 27 27 28 30 32 33 34 35 36 37 37 37 37 37 38 38 38 38 38 38 38 38 38 38 38 38 39 40 40 40 39 39 40 40 39 38 39 40 40 40 38 37 37 37 37 37 38 41 43 45 46 47 48 47 45 43 41 40 39 40 40 41 42 43 42 43 44 44 45 46 47 47 47 47 47 46 45 45 45 46 46
26 27 29 31 31 31 32 34 36 37 39 39 39 40 41 41 41 42 42 42 42 42 42 42 41 41 40 40 40 40 41 41 40 40 39 39 40 41 41 41 43 44 45 44 42 41 41 39 38 39 41 43 45 48 50 51 51 49 46 43 41 40 40 41 42 43 45 45 46 47 47 48 48 49 49 49 48 48 48 47 46 46 47 47 47
33 34 36 38 38 37 37 38 39 41 42 43 43 44 44 45 45 46 46 46 46 46 45 44 44 43 43 43 43 43 42 42 41 41 40 40 41 43 45 46 46 47 47 46 45 45 43 41 41 42 44 45 47 48 50 50 51 50 48 45 43 43 44 44 44 46 47 48 49 50 50 50 51 51 51 52 51 50 49 48 48 48 48 48 48
41 42 42 43 43 43 43 43 42 43 44 46 47 47 48 49 49 50 50 50 49 48 47 46 45 44 44 44 45 45 45 44 43 43 42 42 42 44 46 46 46 46 46 46 46 46 44 44 44 44 44 45 46 48 49 50 50 50 49 48 48 48 48 47 47 48 49 50 51 51 52 52 52 52 52 52 51 51 51 50 50 50 50 50 49
43 45 45 46 47 48 47 47 47 47 48 49 50 50 51 52 52 52 52 51 50 49 48 47 46 46 47 47 48 48 48 48 47 46 45 45 44 44 46 46 47 48 47 46 47 47 46 46 47 46 46 46 47 48 49 50 51 50 50 50 50 50 49 49 49 50 51 52 52 52 53 53 53 53 54 53 51 50 51 52 52 52 52 52 52
Wind_Direction
225 231 238 252 268 268 258 250 249 255 263 268 270 273 274 274 273 272 271 268 266 264 264 264 264 264 262 257 251 243 240 237 234 234 234 231 226 228 234 239 239 238 238 239 238 237 237 236 235 236 239 240 240 242 244 246 249 253 257 259 260 260 260 260 259 258 256 253 251 250 250 249 249 248 248 248 249 250 251 251 251 252 251 251 251
248 244 243 252 265 264 257 248 242 248 259 268 274 278 278 277 277 277 274 270 267 265 265 265 261 259 256 252 245 238 238 239 240 240 237 236 234 232 234 239 242 241 241 241 242 241 241 241 238 236 237 240 241 242 243 244 246 249 252 256 257 258 258 258 259 259 259 257 255 253 252 251 251 251 251 251 251 251 252 253 254 254 253 252 251
243 241 244 253 251 242 247 252 251 255 266 279 285 285 283 282 282 280 276 271 268 264 265 263 257 254 249 241 236 234 235 240 244 245 242 238 235 232 229 232 236 241 244 244 244 244 244 245 243 240 238 238 241 242 243 244 244 245 247 249 251 252 253 254 255 256 257 257 258 257 255 254 253 253 253 253 253 253 253 253 254 255 255 254 252
232 236 239 248 242 231 240 254 263 271 285 295 297 293 287 285 283 277 272 270 266 260 259 261 254 248 241 230 226 230 235 243 246 244 244 237 232 229 227 231 233 235 241 244 245 246 247 249 251 250 246 243 242 243 243 243 242 243 244 245 246 248 250 252 252 253 254 256 257 257 257 257 255 254 254 254 254 254 254 254 254 254 254 254 253
227 226 217 229 236 236 242 255 271 280 287 291 290 290 289 287 279 270 268 269 265 256 252 253 246 234 228 221 221 232 243 246 241 237 239 235 233 230 227 235 239 234 237 243 246 249 251 254 256 256 255 251 247 245 244 244 242 242 242 243 245 246 249 251 252 253 254 254 255 256 257 257 257 256 255 255 255 255 255 254 253 253 253 253 253
210 213 217 227 237 242 252 265 276 277 274 276 280 287 293 290 281 276 277 279 274 260 247 243 238 229 225 220 223 234 241 235 230 232 237 234 233 232 228 236 244 240 240 243 247 252 255 257 258 258 257 256 253 249 246 244 243 242 242 243 244 246 247 250 252 253 254 254 255 255 256 256 256 256 256 256 256 256 255 255 255 254 253 253 253
206 213 221 230 241 247 254 266 273 274 272 272 277 284 290 290 287 287 288 292 286 262 242 235 234 233 229 224 224 222 213 214 223 230 237 235 232 229 227 234 244 245 244 245 248 253 255 257 257 256 255 255 254 252 249 246 243 242 243 244 245 246 247 249 251 253 254 255 255 255 255 256 256 256 256 256 255 256 255 255 255 254 254 254 253
215 222 233 243 253 260 264 270 272 273 274 273 274 277 282 289 289 289 291 295 294 264 238 231 234 237 234 229 221 207 202 213 224 231 232 225 221 222 227 236 245 245 244 246 248 250 252 253 252 253 254 256 255 254 251 248 245 243 243 244 246 247 247 248 250 252 253 254 255 255 255 255 255 255 254 254 253 254 255 255 255 255 255 254 255
229 234 246 255 263 271 272 273 273 272 271 269 268 271 277 287 288 291 294 298 303 278 243 235 237 237 237 233 220 210 212 218 226 235 226 212 214 221 229 236 243 246 244 247 250 251 251 250 251 256 263 265 265 263 257 251 246 243 242 244 246 247 248 248 249 250 251 253 255 256 255 255 254 254 254 254 253 252 253 254 255 256 256 256 256
243 247 251 257 261 267 268 269 271 270 267 264 264 268 275 282 284 290 296 296 298 279 242 234 242 234 229 227 213 208 212 219 233 240 234 227 228 231 233 240 248 249 246 250 253 252 251 251 254 263 272 274 275 278 274 260 248 242 242 244 246 246 246 248 250 251 251 252 252 253 254 255 254 254 254 254 253 252 252 253 255 256 257 257 258
249 255 260 262 263 267 268 269 269 266 262 261 261 265 270 274 275 280 286 288 283 264 235 225 245 241 213 210 211 210 215 230 241 239 235 237 239 239 243 249 251 249 249 252 253 252 252 254 259 266 272 274 279 284 285 274 254 243 241 243 244 245 247 250 253 253 252 250 249 250 254 254 254 254 254 254 254 253 253 253 254 256 257 258 259
252 264 270 271 270 269 267 265 263 262 260 259 258 259 262 266 267 268 273 277 273 261 240 227 244 245 210 204 221 228 233 243 249 246 241 240 238 238 244 250 250 248 250 253 255 254 255 261 266 268 264 267 273 275 274 271 258 245 241 242 245 247 250 252 253 254 254 252 251 253 255 256 255 255 256 255 254 253 253 254 255 256 257 259 259
261 270 273 272 270 267 264 262 260 260 258 256 253 253 256 260 264 264 261 263 263 257 245 234 234 230 209 204 218 231 238 244 249 250 247 244 241 241 248 254 253 249 248 250 254 257 259 263 267 265 259 261 266 267 263 259 256 250 247 248 251 252 253 254 255 257 258 257 256 257 258 258 258 258 258 258 257 254 253 253 254 256 257 259 260
260 260 261 261 258 257 260 261 260 258 258 257 255 253 255 257 259 259 256 255 257 254 243 230 222 216 213 215 222 232 240 246 246 244 241 238 240 246 254 256 254 252 252 251 255 258 258 256 261 262 256 256 260 260 257 254 255 257 256 256 257 258 257 258 259 258 259 259 260 261 260 260 260 260 260 260 259 257 254 254 255 256 258 260 262
254 253 251 249 247 247 253 257 258 258 258 259 256 254 253 254 256 258 260 258 258 257 248 232 222 217 214 218 225 229 230 234 238 243 243 238 236 240 249 253 252 252 254 255 258 257 252 249 254 259 250 243 246 246 246 251 255 260 262 264 266 266 265 264 262 259 259 261 261 261 261 261 261 261 261 261 260 258 255 254 255 257 259 262 264
255 253 249 246 245 246 249 251 253 255 257 258 252 248 245 248 256 262 267 266 263 266 265 254 238 226 212 211 225 233 229 227 233 239 242 242 240 237 245 252 252 251 250 249 253 253 250 246 246 250 248 242 239 237 239 242 246 251 260 271 282 285 278 273 272 269 264 261 260 260 262 262 262 262 262 262 261 258 256 255 255 257 259 262 264
260 258 252 249 250 249 249 248 249 252 256 259 255 248 239 236 247 260 268 271 270 271 272 269 260 249 226 210 220 234 237 237 239 241 245 248 247 242 245 252 255 259 255 249 251 252 251 247 243 241 242 240 238 241 244 243 244 248 253 262 275 283 283 280 284 282 270 262 259 260 261 262 262 264 264 264 262 259 257 255 255 256 258 260 262
264 262 256 251 251 249 248 248 249 253 256 259 257 253 247 240 241 251 261 271 277 275 275 277 273 269 255 230 226 234 243 247 247 248 252 258 259 256 255 256 256 259 257 254 255 254 252 252 247 241 238 237 237 242 245 245 247 249 249 257 268 273 275 274 275 274 267 262 261 262 263 264 265 267 268 269 265 258 254 254 254 256 258 260 263
265 262 255 248 246 246 248 249 251 251 250 252 253 253 253 250 247 249 254 262 273 277 279 282 281 279 274 259 247 242 243 249 252 251 253 260 263 264 263 260 257 256 256 257 256 255 256 254 248 243 243 245 244 244 245 247 250 250 251 259 265 268 270 270 269 269 266 264 266 267 266 269 273 273 271 271 268 260 254 253 255 257 258 261 263
262 258 252 245 243 247 249 250 251 250 247 244 244 246 248 250 251 251 253 257 264 270 274 279 281 281 279 274 267 256 248 249 253 252 250 252 256 261 264 263 261 259 256 254 252 254 257 253 246 244 251 258 257 253 252 254 255 254 255 259 262 264 266 267 267 269 269 268 268 266 265 270 276 276 272 268 266 262 254 250 251 254 257 260 262
254 249 247 246 247 251 251 250 251 250 247 243 241 241 243 244 246 248 251 254 257 262 266 269 273 276 278 278 276 269 262 257 256 255 252 250 253 257 261 262 263 261 257 253 250 251 254 250 244 247 258 265 263 261 259 259 260 260 260 260 261 262 263 264 264 266 268 268 266 264 266 271 274 273 272 267 261 256 252 249 250 252 254 256 258
248 243 244 248 251 256 254 250 249 248 244 240 238 237 238 240 242 244 246 247 249 254 259 263 265 269 272 272 271 269 268 264 260 261 260 259 260 260 260 260 258 255 252 249 247 249 251 248 248 253 261 264 263 263 263 263 263 264 264 264 263 262 261 261 261 262 264 266 265 265 267 270 271 271 270 266 260 253 248 247 250 252 253 255 258
246 242 242 248 253 257 256 249 244 241 235 230 228 226 229 232 236 239 241 240 241 244 251 260 264 266 266 265 264 262 262 261 261 265 268 269 267 262 259 257 253 249 247 245 244 247 249 250 253 258 261 262 262 263 264 265 266 266 266 266 266 265 264 263 262 262 263 264 265 266 268 269 270 269 267 265 263 259 254 251 251 253 256 259 260
246 245 245 250 255 258 258 251 239 233 228 226 225 223 221 221 223 228 232 233 235 238 245 254 261 263 264 264 263 261 259 259 261 264 265 266 264 259 254 251 247 245 245 245 247 251 253 255 258 261 262 263 263 264 265 266 267 267 268 268 268 268 268 267 266 265 265 265 266 267 269 270 269 268 266 265 264 263 262 260 259 259 259 260 262
245 250 253 257 260 261 259 251 237 230 232 233 231 227 220 214 211 212 216 220 226 230 235 241 248 255 259 261 261 259 258 259 258 257 257 256 255 252 249 247 245 244 245 247 250 254 258 261 263 265 267 268 268 268 269 269 269 270 271 271 271 271 270 269 269 269 269 268 269 269 270 271 271 271 269 267 266 265 265 264 264 264 263 262 262
245 253 259 263 264 263 260 251 239 236 239 238 230 222 216 209 205 204 207 212 216 221 224 229 235 242 248 251 251 251 251 251 251 249 248 247 245 243 241 240 241 243 246 249 253 255 256 259 263 266 269 270 270 271 271 271 271 271 271 272 273 273 272 271 271 271 272 272 272 272 273 273 273 273 273 271 269 268 267 267 266 266 265 265 264
246 255 261 264 265 265 260 252 244 242 242 236 224 217 210 206 205 205 207 212 216 219 221 223 226 230 235 240 243 245 246 246 246 245 244 241 238 236 235 237 240 242 244 245 249 253 253 255 259 262 266 270 272 273 272 270 269 268 268 269 271 272 273 273 273 273 275 275 275 276 276 276 276 276 277 277 276 273 271 270 269 269 269 268 267
248 255 260 260 261 265 263 255 247 242 238 231 222 215 209 206 209 212 217 222 226 228 230 231 232 232 234 238 242 243 243 243 243 243 243 241 241 241 241 243 245 248 250 248 248 250 251 252 255 258 263 267 270 270 268 266 265 266 266 267 269 271 272 273 274 275 276 277 278 280 281 282 282 282 281 282 282 282 280 278 276 275 274 273 273
247 254 263 263 260 263 264 257 248 242 235 228 224 220 214 212 216 223 230 234 235 237 238 240 241 242 242 243 246 247 246 246 244 244 243 241 245 251 253 256 259 262 264 263 261 260 260 260 261 260 260 261 263 263 264 265 265 265 265 264 265 266 268 270 272 274 275 277 280 282 285 287 289 290 290 290 290 290 290 289 287 284 282 280 279
248 255 265 268 263 261 262 258 250 244 238 232 228 226 223 223 228 233 237 239 240 241 241 241 242 242 243 245 247 249 251 254 256 258 256 248 245 250 257 263 267 269 271 273 274 274 272 270 267 264 262 263 264 264 264 266 268 267 266 266 266 266 268 269 272 275 277 280 283 286 289 292 294 295 297 297 297 296 295 294 294 293 292 291 288
253 259 264 265 261 258 259 258 252 246 241 237 233 232 231 232 235 237 240 242 243 243 241 239 237 238 242 248 252 256 260 264 266 265 264 261 257 254 257 261 266 268 269 270 270 270 268 266 265 266 267 268 268 269 268 267 268 268 267 267 268 269 270 271 273 277 279 282 286 289 291 293 295 297 298 298 298 297 297 296 296 295 295 295 295
258 262 261 258 255 254 254 254 250 246 244 243 242 241 241 242 244 246 248 249 248 245 241 239 238 241 247 254 260 263 266 269 269 267 268 274 277 272 267 264 262 261 261 263 264 265 265 266 267 269 270 269 267 268 269 268 266 264 264 265 267 270 274 277 280 283 285 287 290 292 295 296 297 297 297 297 297 297 297 296 296 296 295 295 295
260 258 255 251 250 250 250 249 249 248 247 248 249 249 250 252 253 255 257 257 256 255 254 255 257 259 261 262 263 266 271 272 273 276 283 294 300 298 294 286 275 266 264 267 271 273 273 274 276 276 274 272 269 265 265 266 265 263 262 264 268 272 279 286 290 292 292 293 294 294 294 294 294 293 292 292 291 291 292 292 292 292 292 293 292
254 245 242 242 243 244 246 247 248 248 249 250 251 252 254 254 254 254 255 256 257 262 270 276 278 277 275 273 272 277 282 280 278 281 287 296 301 301 299 294 288 283 280 278 279 279 280 281 283 282 279 278 276 273 271 271 270 267 264 263 264 267 277 286 290 291 290 290 289 287 286 284 286 288 289 289 288 287 286 286 286 286 286 287 287
241 232 231 236 240 242 245 249 250 252 254 257 260 260 260 259 256 254 254 257 263 271 279 281 280 279 278 277 280 286 291 290 289 289 293 298 302 302 300 298 297 295 291 285 279 276 277 279 280 279 278 277 277 276 275 273 270 265 261 258 261 270 281 289 292 294 294 294 293 291 288 286 285 285 286 286 287 286 285 284 282 281 281 280 280
227 228 230 236 242 245 250 254 257 260 263 266 268 268 268 268 266 266 269 277 286 289 286 284 283 282 281 279 280 285 292 296 297 299 302 304 306 305 302 300 299 298 294 287 281 277 276 275 275 274 274 273 272 270 269 267 265 264 264 266 274 283 292 297 300 301 303 303 303 301 299 297 295 293 292 290 288 287 286 285 285 283 282 280 278
217 224 229 236 242 248 253 256 259 261 264 265 266 267 269 270 273 280 290 296 296 293 292 293 292 289 286 285 285 288 293 296 297 298 300 302 303 302 300 298 296 297 296 292 287 282 278 277 276 274 271 268 266 265 263 260 260 263 267 273 281 290 295 298 300 302 304 305 306 305 304 302 300 298 296 294 292 290 288 286 286 285 285 283 282
215 221 227 234 240 248 253 256 258 260 260 258 258 259 262 266 273 280 285 287 288 290 294 295 294 293 292 293 294 297 299 300 299 297 297 298 300 301 300 298 296 296 296 295 292 288 284 282 279 277 275 271 266 262 260 259 260 263 267 272 280 287 291 294 297 299 300 300 300 299 297 295 293 292 291 291 290 290 289 287 286 284 284 283 282
222 226 231 236 241 247 250 253 256 257 256 254 254 255 257 262 269 273 276 280 285 289 291 290 290 291 293 293 295 298 301 302 301 297 295 297 299 300 299 297 295 295 293 291 290 290 289 287 283 281 278 276 272 267 262 261 262 264 267 272 278 283 287 290 293 295 296 296 295 293 291 289 287 287 286 286 286 286 287 287 286 285 284 282 281
230 232 236 240 242 243 243 246 250 251 250 250 251 253 257 261 266 270 274 278 283 288 290 287 283 282 284 287 291 293 296 298 298 297 296 297 298 297 296 295 294 293 291 289 286 286 287 287 286 283 279 276 274 271 269 267 266 267 269 272 276 281 285 288 291 293 294 294 293 292 292 291 289 288 287 286 285 284 283 283 284 284 284 283 281
240 242 244 246 245 241 238 241 245 246 246 247 249 253 257 261 265 269 273 277 280 286 289 286 279 275 277 282 287 290 292 293 295 296 296 297 296 295 293 292 292 292 291 290 288 287 285 286 285 282 277 274 272 271 270 269 269 271 272 275 277 281 284 286 288 289 291 293 293 293 294 294 292 291 290 289 288 287 285 284 282 282 281 281 281
245 246 247 247 246 241 238 240 243 246 249 250 252 254 257 260 263 266 270 274 278 281 284 283 280 277 278 281 284 287 289 291 293 294 295 296 296 294 292 289 288 289 290 291 290 289 287 285 283 279 275 272 271 271 270 270 271 272 274 276 279 282 284 286 287 288 289 292 293 292 293 294 292 290 290 290 289 289 288 287 286 284 283 281 281
241 240 242 244 244 242 241 242 245 248 250 252 253 255 257 260 264 267 270 273 276 279 280 280 279 279 281 282 283 284 286 290 292 292 293 294 294 293 291 288 287 287 288 289 290 290 289 286 284 280 276 273 271 271 270 270 271 272 274 276 279 282 285 286 288 289 290 291 291 288 289 291 291 290 290 290 289 289 288 288 287 286 285 284 282
240 240 242 244 244 243 243 244 246 248 250 251 253 256 260 263 266 268 270 273 275 276 277 278 278 279 281 282 283 282 283 287 290 290 290 291 292 291 289 286 285 286 287 287 287 286 285 284 283 280 277 274 272 271 270 269 270 272 275 278 280 283 285 286 288 288 288 289 289 287 288 290 291 291 290 290 289 289 288 286 285 285 284 283 283
238 239 241 243 243 244 245 247 250 252 253 254 256 259 261 263 265 266 268 269 270 271 272 273 275 276 278 281 281 280 281 285 288 288 287 288 288 287 286 284 284 286 286 286 285 284 283 282 280 278 275 273 272 271 271 271 273 276 278 280 282 283 285 286 287 285 284 285 286 286 288 291 292 293 293 292 291 289 287 285 284 283 283 282 281
236 239 240 241 244 247 250 253 255 257 258 258 259 260 260 261 261 262 263 264 265 266 268 269 271 273 275 278 279 280 281 283 286 287 286 287 286 284 282 281 283 285 285 285 285 284 284 283 281 278 275 272 271 270 271 274 277 280 281 282 283 284 284 285 284 281 280 281 283 284 286 289 292 295 296 295 292 289 287 285 284 283 283 283 283
235 236 239 244 249 253 256 259 261 262 262 261 261 262 262 262 262 262 263 264 265 266 268 269 271 274 276 278 280 281 281 283 285 286 287 287 284 281 280 280 281 282 282 282 283 285 286 285 282 279 276 273 271 271 273 277 281 283 283 283 283 283 284 284 282 279 279 281 282 283 286 289 292 296 298 296 292 289 287 286 285 284 284 285 285
236 238 247 255 259 260 261 261 261 262 262 262 263 264 264 265 265 265 266 267 267 267 268 269 271 274 277 279 281 281 282 283 284 285 285 285 282 279 279 279 279 279 279 279 280 284 285 283 279 276 274 273 272 274 276 279 282 285 286 285 284 284 283 282 280 279 281 282 283 284 286 289 292 295 298 298 294 289 287 286 286 286 286 287 287
251 254 259 261 262 262 262 262 261 261 262 262 263 264 264 265 266 266 267 267 267 268 268 269 272 275 278 280 281 282 283 284 284 283 283 282 280 278 277 277 277 278 278 277 279 280 280 277 276 275 274 274 274 275 276 278 280 283 285 286 285 284 282 281 280 280 280 281 282 283 286 289 291 293 296 297 295 290 287 285 285 286 288 288 288
260 262 263 263 262 262 262 261 261 261 262 264 264 265 265 266 266 267 268 267 267 267 268 269 273 277 279 281 282 282 284 284 283 282 281 280 279 279 278 277 275 275 275 275 276 276 276 276 276 276 276 276 276 276 276 276 277 279 280 281 281 281 280 280 279 278 278 279 281 284 286 288 290 292 294 295 292 288 286 285 285 287 288 288 288
260 261 262 261 261 260 260 260 260 261 262 264 265 266 267 268 269 270 270 269 269 269 270 272 275 278 280 282 283 284 284 284 283 282 280 280 279 276 274 273 273 273 273 272 272 273 274 275 276 276 276 277 277 277 277 276 276 276 276 276 276 277 277 277 277 276 277 279 281 283 286 288 290 292 294 293 289 286 285 285 287 288 289 289 289
Height
5813 5813 5813 5813 5812 5812 5811 5811 5811 5812 5812 5812 5811 5811 5811 5810 5810 5810 5810 5809 5808 5808 5808 5808 5809 5809 5809 5809 5809 5810 5811 5812 5812 5813 5814 5815 5816 5817 5817 5819 5819 5819 5820 5820 5821 5821 5822 5822 5823 5824 5824 5825 5825 5826 5826 5826 5827 5827 5828 5828 5828 5828 5828 5829 5829 5829 5829 5830 5830 5831 5831 5831 5831 5832 5832 5832 5832 5833 5833 5833 5834 5834 5834 5834 5835
5812 5813 5812 5812 5811 5811 5811 5811 5811 5811 5810 5810 5810 5810 5809 5809 5809 5808 5808 5807 5807 5807 5807 5807 5807 5807 5807 5807 5807 5808 5809 5810 5810 5812 5814 5815 5816 5816 5815 5817 5818 5819 5818 5819 5819 5820 5820 5820 5821 5822 5822 5823 5824 5824 5824 5825 5825 5826 5827 5827 5827 5827 5827 5827 5827 5828 5828 5828 5828 5829 5829 5829 5830 5830 5830 5831 5831 5831 5832 5832 5832 5833 5833 5833 5834
5812 5812 5812 5811 5811 5811 5811 5810 5810 5810 5809 5809 5809 5809 5808 5808 5807 5807 5807 5806 5806 5806 5806 5805 5805 5805 5804 5805 5805 5806 5808 5809 5810 5811 5812 5814 5814 5814 5814 5815 5816 5817 5817 5817 5817 5818 5818 5819 5819 5820 5821 5821 5822 5823 5823 5823 5824 5825 5825 5825 5825 5825 5825 5825 5826 5826 5826 5826 5827 5827 5827 5828 5828 5828 5828 5829 5829 5830 5830 5831 5831 5831 5832 5832 5832
5811 5811 5811 5810 5810 5810 5810 5810 5810 5809 5808 5808 5808 5808 5807 5807 5807 5806 5806 5805 5805 5805 5804 5804 5803 5803 5803 5803 5804 5805 5807 5808 5809 5810 5811 5811 5812 5813 5814 5814 5814 5814 5815 5815 5815 5816 5816 5817 5818 5819 5820 5820 5821 5821 5821 5821 5822 5822 5823 5823 5823 5823 5823 5823 5824 5824 5824 5824 5825 5825 5826 5826 5826 5826 5827 5827 5827 5828 5828 5829 5829 5830 5830 5830 5830
5811 5811 5810 5810 5810 5810 5810 5809 5809 5808 5808 5807 5807 5807 5807 5806 5806 5806 5805 5804 5804 5803 5803 5803 5802 5802 5801 5802 5803 5804 5806 5808 5808 5809 5809 5809 5810 5811 5813 5813 5813 5812 5813 5813 5814 5814 5815 5816 5817 5817 5818 5818 5819 5819 5819 5819 5819 5820 5820 5820 5821 5821 5821 5822 5822 5822 5822 5823 5823 5823 5823 5824 5824 5824 5825 5825 5825 5826 5826 5827 5827 5827 5828 5828 5828
5810 5810 5810 5810 5809 5809 5809 5809 5808 5808 5807 5807 5806 5806 5806 5805 5805 5805 5804 5803 5803 5802 5802 5801 5801 5801 5801 5802 5803 5804 5805 5807 5807 5807 5808 5808 5808 5809 5811 5812 5812 5811 5811 5812 5813 5813 5814 5815 5815 5815 5816 5816 5816 5816 5816 5816 5817 5817 5817 5818 5819 5819 5819 5820 5820 5820 5821 5821 5821 5821 5821 5821 5822 5822 5823 5823 5823 5824 5824 5824 5825 5825 5825 5826 5826
5809 5809 5809 5809 5809 5808 5808 5808 5807 5807 5806 5806 5806 5806 5805 5805 5804 5804 5803 5802 5801 5801 5800 5800 5800 5800 5800 5801 5802 5803 5804 5805 5806 5806 5807 5807 5807 5808 5810 5810 5810 5810 5810 5811 5812 5812 5813 5813 5813 5813 5813 5813 5813 5813 5813 5814 5814 5815 5815 5816 5816 5817 5817 5818 5818 5818 5819 5819 5819 5819 5819 5819 5820 5820 5820 5821 5821 5821 5822 5822 5823 5823 5823 5824 5824
5808 5808 5808 5808 5808 5807 5807 5806 5806 5806 5805 5805 5805 5805 5805 5804 5803 5803 5802 5801 5800 5799 5799 5799 5799 5799 5799 5800 5801 5802 5803 5804 5804 5805 5805 5806 5806 5807 5808 5809 5809 5809 5810 5810 5811 5811 5811 5811 5810 5810 5810 5810 5810 5810 5810 5811 5812 5812 5813 5814 5814 5815 5815 5815 5816 5816 5816 5816 5817 5817 5817 5817 5817 5817 5818 5818 5818 5819 5819 5820 5820 5820 5821 5821 5822
5807 5807 5807 5807 5806 5806 5806 5805 5805 5804 5804 5804 5804 5804 5803 5803 5802 5801 5801 5800 5799 5798 5798 5798 5798 5799 5798 5798 5799 5800 5801 5802 5803 5804 5804 5805 5805 5806 5807 5808 5808 5808 5808 5809 5809 5810 5809 5808 5808 5808 5808 5809 5809 5809 5808 5809 5809 5810 5810 5811 5811 5812 5812 5813 5813 5813 5813 5814 5814 5814 5814 5814 5814 5815 5815 5815 5815 5816 5816 5817 5817 5818 5818 5819 5819
5805 5806 5806 5806 5806 5805 5805 5804 5804 5803 5803 5803 5803 5803 5802 5802 5801 5800 5799 5798 5798 5798 5798 5798 5798 5797 5797 5797 5798 5800 5800 5801 5802 5803 5804 5804 5805 5806 5806 5807 5807 5807 5807 5807 5808 5808 5807 5807 5806 5807 5807 5807 5807 5807 5807 5807 5807 5807 5808 5808 5808 5809 5809 5810 5810 5810 5810 5810 5811 5811 5811 5812 5812 5812 5812 5812 5812 5813 5813 5814 5814 5815 5815 5816 5817
5804 5804 5804 5804 5804 5804 5803 5803 5802 5802 5802 5802 5802 5801 5801 5800 5800 5799 5798 5797 5797 5797 5797 5798 5797 5797 5797 5797 5798 5799 5800 5801 5802 5802 5803 5803 5804 5805 5805 5805 5805 5805 5805 5806 5806 5806 5805 5806 5806 5806 5806 5806 5806 5806 5806 5806 5805 5805 5805 5805 5805 5806 5807 5808 5808 5807 5807 5807 5808 5808 5808 5808 5809 5809 5809 5809 5809 5810 5810 5811 5811 5812 5812 5813 5814
5803 5802 5802 5802 5802 5802 5802 5801 5801 5801 5801 5801 5801 5800 5799 5799 5799 5798 5797 5796 5796 5796 5797 5797 5797 5797 5797 5798 5798 5798 5799 5800 5801 5801 5802 5802 5803 5804 5804 5804 5804 5804 5804 5805 5804 5804 5804 5805 5805 5805 5805 5804 5804 5804 5804 5804 5804 5803 5803 5803 5802 5804 5806 5805 5805 5804 5805 5805 5805 5805 5806 5806 5806 5806 5806 5806 5806 5807 5807 5808 5809 5809 5809 5810 5810
5801 5801 5801 5800 5801 5800 5800 5800 5800 5800 5800 5800 5799 5799 5798 5798 5798 5797 5796 5795 5795 5795 5795 5796 5796 5796 5797 5798 5798 5798 5799 5799 5800 5800 5801 5801 5802 5802 5803 5803 5803 5803 5804 5804 5803 5803 5803 5804 5804 5804 5803 5803 5803 5803 5803 5803 5802 5802 5802 5801 5801 5803 5803 5802 5802 5802 5802 5802 5802 5803 5803 5803 5803 5803 5803 5804 5804 5804 5805 5805 5806 5806 5806 5807 5807
5799 5800 5800 5800 5800 5799 5799 5799 5799 5799 5799 5799 5798 5798 5797 5797 5797 5796 5795 5795 5794 5794 5794 5795 5795 5796 5796 5797 5797 5798 5798 5798 5799 5799 5800 5801 5801 5802 5802 5802 5802 5802 5803 5803 5802 5802 5802 5803 5802 5802 5802 5801 5801 5801 5801 5801 5801 5801 5800 5799 5800 5801 5801 5800 5800 5800 5800 5799 5800 5800 5800 5800 5800 5800 5801 5801 5801 5801 5802 5802 5803 5803 5804 5804 5805
5799 5799 5799 5799 5799 5798 5798 5798 5798 5798 5797 5797 5797 5797 5797 5797 5796 5795 5795 5794 5793 5793 5793 5794 5794 5795 5796 5796 5797 5797 5798 5798 5798 5799 5800 5801 5801 5801 5802 5802 5802 5801 5802 5802 5801 5801 5801 5801 5801 5801 5800 5800 5800 5800 5800 5801 5800 5800 5798 5798 5799 5799 5799 5799 5798 5798 5798 5797 5797 5797 5797 5797 5797 5798 5798 5798 5798 5799 5799 5799 5800 5801 5801 5802 5802
5798 5798 5798 5798 5797 5797 5796 5796 5797 5796 5796 5796 5796 5796 5796 5796 5796 5795 5794 5794 5793 5792 5792 5793 5793 5794 5795 5796 5796 5796 5796 5797 5798 5798 5799 5800 5800 5801 5801 5801 5801 5801 5801 5801 5800 5800 5800 5800 5800 5800 5799 5799 5799 5799 5799 5799 5799 5799 5798 5797 5797 5797 5797 5797 5797 5796 5796 5796 5795 5795 5795 5795 5795 5795 5795 5795 5795 5796 5796 5796 5797 5798 5799 5799 5799
5796 5796 5796 5796 5795 5795 5795 5795 5795 5795 5795 5795 5795 5795 5795 5795 5795 5794 5794 5793 5793 5792 5792 5792 5793 5793 5794 5795 5795 5794 5795 5796 5797 5797 5798 5798 5799 5800 5800 5801 5801 5800 5800 5800 5800 5800 5799 5799 5799 5798 5798 5798 5798 5798 5798 5798 5797 5797 5797 5796 5796 5796 5796 5796 5795 5795 5794 5793 5793 5793 5793 5793 5793 5793 5792 5792 5792 5792 5793 5793 5794 5795 5796 5796 5796
5794 5794 5794 5794 5793 5793 5793 5794 5794 5794 5794 5794 5794 5794 5794 5794 5794 5793 5793 5792 5792 5792 5791 5792 5792 5792 5793 5794 5793 5793 5794 5795 5795 5795 5796 5796 5797 5798 5798 5799 5800 5800 5800 5800 5799 5799 5798 5798 5797 5797 5797 5797 5797 5796 5796 5796 5796 5795 5795 5795 5795 5794 5794 5794 5794 5793 5792 5791 5792 5792 5791 5791 5791 5791 5790 5789 5789 5789 5790 5791 5792 5793 5793 5793 5793
5792 5792 5792 5792 5791 5792 5792 5792 5792 5793 5793 5793 5793 5793 5792 5793 5792 5792 5792 5791 5791 5791 5791 5791 5791 5791 5792 5792 5792 5792 5793 5794 5794 5794 5794 5794 5795 5796 5796 5797 5798 5799 5799 5799 5798 5798 5797 5797 5796 5796 5796 5796 5796 5795 5795 5794 5794 5793 5793 5793 5793 5793 5792 5792 5792 5792 5790 5790 5790 5790 5789 5789 5789 5789 5788 5787 5787 5787 5787 5788 5790 5790 5790 5790 5790
5790 5790 5790 5790 5790 5790 5790 5791 5791 5791 5791 5791 5791 5791 5791 5791 5791 5790 5790 5790 5790 5790 5790 5790 5790 5791 5791 5791 5791 5792 5792 5792 5792 5793 5793 5793 5794 5794 5795 5796 5796 5797 5797 5797 5796 5796 5795 5795 5795 5795 5795 5794 5794 5794 5793 5793 5792 5792 5791 5791 5791 5791 5791 5790 5790 5790 5789 5788 5788 5787 5786 5787 5787 5787 5787 5786 5785 5786 5786 5785 5786 5787 5787 5787 5787
5788 5788 5788 5788 5788 5788 5789 5789 5789 5789 5790 5790 5790 5789 5789 5789 5788 5788 5788 5788 5789 5789 5789 5789 5790 5790 5790 5790 5790 5791 5791 5791 5791 5791 5791 5792 5792 5793 5794 5794 5795 5795 5794 5794 5794 5794 5793 5793 5793 5793 5793 5793 5793 5792 5792 5791 5790 5790 5790 5789 5789 5789 5789 5788 5788 5788 5787 5787 5786 5785 5785 5786 5785 5785 5785 5784 5784 5784 5784 5783 5784 5784 5785 5785 5784
5787 5787 5787 5787 5787 5787 5787 5788 5788 5788 5788 5788 5788 5787 5787 5787 5786 5786 5786 5787 5787 5787 5787 5787 5788 5789 5789 5790 5790 5789 5789 5789 5789 5789 5790 5791 5791 5792 5792 5793 5793 5792 5792 5791 5791 5792 5792 5792 5791 5791 5791 5791 5791 5791 5790 5790 5789 5788 5788 5787 5787 5787 5787 5787 5786 5786 5785 5785 5784 5784 5784 5784 5783 5783 5783 5782 5782 5782 5782 5782 5782 5782 5782 5781 5781
5785 5785 5786 5786 5785 5785 5785 5786 5786 5786 5786 5786 5786 5786 5785 5785 5785 5785 5785 5785 5785 5785 5785 5786 5786 5787 5788 5788 5789 5788 5788 5788 5788 5788 5789 5790 5790 5791 5791 5791 5791 5790 5789 5789 5789 5790 5790 5789 5789 5789 5789 5789 5789 5789 5788 5788 5787 5786 5786 5785 5785 5785 5785 5785 5784 5784 5783 5783 5782 5781 5781 5781 5781 5781 5780 5780 5780 5780 5780 5780 5780 5779 5779 5778 5778
5783 5783 5784 5784 5784 5783 5783 5784 5785 5785 5785 5785 5785 5784 5784 5784 5784 5784 5784 5784 5784 5784 5784 5784 5785 5785 5786 5787 5787 5787 5786 5786 5787 5787 5788 5788 5789 5789 5789 5789 5788 5788 5787 5787 5787 5788 5787 5787 5787 5787 5787 5787 5787 5787 5786 5786 5785 5784 5784 5783 5783 5783 5782 5782 5782 5782 5781 5781 5780 5779 5779 5778 5778 5778 5778 5778 5777 5777 5777 5777 5777 5777 5777 5776 5776
5781 5781 5782 5782 5782 5782 5781 5782 5783 5783 5784 5784 5783 5783 5783 5783 5784 5784 5783 5783 5783 5783 5783 5783 5784 5784 5785 5785 5785 5785 5785 5785 5786 5786 5786 5787 5787 5787 5787 5787 5786 5785 5785 5786 5786 5786 5785 5785 5785 5785 5785 5784 5784 5784 5784 5783 5783 5782 5781 5781 5780 5780 5780 5780 5779 5779 5779 5779 5778 5777 5777 5776 5776 5776 5775 5775 5775 5774 5774 5774 5774 5774 5774 5774 5773
5779 5779 5779 5780 5780 5780 5780 5780 5781 5782 5782 5782 5782 5782 5782 5782 5782 5782 5782 5782 5782 5782 5782 5783 5783 5783 5784 5784 5784 5784 5784 5785 5785 5785 5785 5785 5785 5785 5785 5784 5783 5783 5784 5784 5784 5784 5783 5783 5783 5782 5782 5782 5782 5782 5781 5781 5780 5780 5779 5779 5778 5778 5777 5777 5777 5777 5776 5776 5776 5775 5774 5774 5773 5773 5772 5772 5772 5771 5771 5771 5771 5771 5771 5771 5770
5777 5777 5777 5778 5778 5778 5778 5779 5779 5780 5780 5780 5780 5780 5780 5780 5781 5781 5781 5781 5781 5781 5782 5782 5782 5783 5783 5783 5783 5784 5784 5784 5784 5784 5784 5784 5784 5783 5783 5782 5781 5781 5782 5782 5782 5782 5781 5781 5781 5780 5780 5780 5779 5779 5779 5778 5778 5778 5777 5777 5776 5776 5775 5775 5775 5775 5774 5773 5773 5772 5772 5771 5771 5770 5770 5769 5769 5768 5768 5768 5767 5767 5767 5767 5767
5775 5775 5776 5776 5776 5776 5777 5777 5778 5778 5778 5778 5779 5779 5779 5779 5779 5780 5780 5780 5781 5781 5781 5781 5781 5782 5782 5782 5782 5783 5783 5783 5783 5783 5783 5783 5783 5782 5781 5780 5780 5780 5780 5780 5780 5780 5780 5779 5779 5778 5778 5778 5777 5777 5777 5776 5776 5775 5775 5775 5774 5774 5773 5773 5773 5772 5772 5771 5770 5770 5769 5769 5768 5768 5767 5767 5766 5766 5765 5765 5765 5764 5764 5764 5763
5772 5773 5773 5774 5774 5774 5775 5776 5776 5777 5777 5777 5777 5777 5778 5778 5779 5779 5779 5780 5780 5780 5780 5780 5780 5780 5781 5781 5781 5781 5782 5782 5782 5782 5782 5783 5782 5780 5779 5779 5778 5778 5778 5778 5778 5778 5777 5777 5777 5777 5777 5776 5776 5775 5775 5774 5774 5774 5773 5773 5772 5772 5771 5771 5771 5770 5770 5769 5768 5768 5767 5767 5766 5766 5765 5764 5764 5763 5763 5762 5762 5762 5761 5761 5761
5769 5770 5771 5771 5772 5772 5773 5774 5775 5776 5776 5776 5776 5776 5776 5777 5777 5778 5778 5778 5779 5779 5779 5779 5779 5779 5779 5779 5780 5780 5781 5781 5781 5781 5781 5781 5781 5780 5779 5778 5778 5777 5777 5776 5776 5775 5775 5775 5775 5775 5775 5775 5774 5773 5773 5773 5772 5772 5771 5771 5770 5770 5769 5769 5769 5768 5768 5767 5767 5766 5766 5765 5764 5764 5763 5763 5762 5761 5760 5760 5759 5759 5759 5758 5758
5767 5768 5769 5769 5770 5770 5771 5772 5773 5774 5774 5774 5774 5775 5775 5775 5776 5776 5776 5776 5777 5777 5777 5777 5777 5777 5777 5777 5778 5779 5779 5779 5779 5779 5779 5779 5779 5779 5778 5778 5777 5777 5776 5775 5775 5775 5774 5774 5774 5773 5773 5773 5772 5772 5771 5771 5771 5770 5770 5769 5769 5768 5768 5768 5767 5767 5766 5766 5765 5765 5764 5763 5763 5762 5762 5761 5760 5760 5759 5758 5757 5757 5756 5756 5755
5764 5765 5766 5767 5767 5768 5769 5770 5771 5771 5772 5772 5773 5773 5773 5774 5774 5774 5774 5775 5775 5775 5775 5775 5775 5775 5775 5776 5776 5776 5777 5777 5777 5776 5776 5777 5777 5777 5777 5777 5776 5776 5775 5775 5774 5774 5773 5772 5772 5772 5771 5771 5770 5770 5769 5769 5769 5768 5768 5767 5767 5767 5766 5766 5765 5765 5765 5764 5764 5763 5762 5762 5761 5761 5760 5759 5759 5758 5757 5756 5756 5755 5754 5753 5753
5762 5762 5763 5764 5765 5766 5767 5768 5768 5769 5770 5770 5771 5771 5772 5772 5772 5772 5773 5773 5774 5774 5773 5773 5773 5773 5774 5774 5774 5774 5775 5775 5774 5774 5774 5775 5775 5775 5775 5775 5775 5774 5774 5773 5773 5772 5771 5771 5770 5770 5770 5769 5769 5768 5768 5767 5767 5766 5766 5766 5765 5765 5765 5764 5764 5763 5763 5762 5762 5761 5761 5760 5759 5759 5758 5757 5757 5756 5755 5754 5754 5753 5752 5751 5751
5759 5760 5761 5762 5763 5764 5765 5766 5766 5767 5767 5768 5769 5769 5770 5770 5770 5770 5771 5771 5772 5771 5771 5771 5771 5772 5772 5772 5772 5772 5772 5772 5772 5772 5772 5772 5772 5772 5772 5772 5772 5772 5772 5771 5771 5770 5769 5769 5769 5768 5768 5768 5767 5766 5766 5766 5765 5764 5764 5764 5763 5763 5763 5762 5762 5762 5761 5760 5759 5759 5758 5758 5757 5756 5755 5754 5754 5753 5752 5752 5751 5750 5750 5749 5749
5757 5758 5759 5760 5761 5762 5763 5764 5764 5765 5765 5766 5767 5767 5768 5768 5768 5769 5769 5769 5769 5769 5769 5769 5769 5770 5770 5770 5770 5770 5770 5770 5770 5770 5770 5770 5770 5770 5770 5770 5770 5770 5769 5769 5769 5768 5768 5767 5767 5766 5766 5765 5765 5764 5764 5763 5763 5762 5762 5762 5761 5761 5760 5760 5759 5758 5758 5757 5756 5756 5755 5754 5754 5753 5752 5751 5751 5750 5749 5748 5748 5747 5747 5746 5746
5756 5756 5757 5758 5759 5760 5761 5762 5762 5763 5764 5764 5765 5766 5766 5767 5767 5768 5768 5767 5767 5766 5767 5767 5768 5768 5768 5769 5769 5769 5769 5769 5768 5768 5768 5767 5767 5767 5767 5767 5767 5767 5767 5767 5766 5766 5766 5765 5764 5764 5763 5763 5762 5762 5762 5761 5760 5760 5759 5759 5759 5758 5757 5756 5755 5755 5754 5753 5752 5751 5750 5750 5749 5748 5748 5747 5747 5746 5745 5744 5743 5743 5742 5742 5742
5753 5754 5755 5756 5757 5758 5759 5759 5760 5761 5762 5763 5763 5763 5764 5764 5765 5765 5765 5764 5764 5764 5765 5766 5766 5766 5766 5766 5767 5767 5767 5766 5766 5766 5766 5766 5765 5764 5764 5763 5764 5764 5763 5763 5763 5763 5763 5763 5762 5761 5760 5760 5759 5759 5758 5758 5757 5757 5756 5756 5756 5755 5754 5754 5753 5752 5751 5750 5749 5747 5746 5745 5744 5743 5742 5742 5741 5741 5740 5740 5739 5738 5737 5737 5736
5750 5751 5752 5753 5754 5755 5756 5757 5758 5759 5760 5760 5761 5761 5761 5762 5762 5763 5762 5762 5762 5762 5763 5763 5763 5763 5763 5763 5764 5764 5764 5764 5763 5763 5763 5763 5763 5762 5761 5760 5760 5760 5760 5760 5759 5759 5760 5760 5760 5759 5758 5757 5756 5755 5755 5754 5754 5753 5753 5752 5752 5752 5751 5750 5750 5749 5748 5747 5746 5745 5744 5743 5742 5740 5739 5738 5737 5736 5735 5735 5734 5734 5733 5732 5731
5749 5749 5750 5751 5752 5753 5754 5754 5755 5757 5757 5758 5758 5759 5759 5760 5760 5760 5760 5760 5760 5760 5761 5761 5760 5760 5760 5760 5760 5760 5760 5760 5760 5760 5759 5759 5759 5759 5758 5757 5757 5757 5757 5757 5756 5756 5755 5755 5755 5755 5755 5754 5753 5752 5751 5750 5749 5749 5749 5748 5748 5747 5747 5746 5746 5745 5744 5743 5742 5741 5741 5740 5738 5737 5735 5734 5733 5732 5730 5729 5729 5728 5728 5727 5726
5747 5747 5748 5749 5750 5751 5751 5752 5752 5754 5755 5755 5756 5756 5757 5757 5757 5757 5757 5757 5758 5758 5758 5758 5758 5758 5758 5757 5757 5757 5756 5756 5756 5756 5755 5755 5754 5754 5754 5754 5753 5753 5753 5753 5753 5752 5752 5751 5751 5750 5750 5750 5750 5749 5748 5746 5745 5745 5744 5744 5744 5743 5742 5741 5741 5740 5739 5739 5738 5736 5735 5734 5733 5731 5730 5729 5728 5728 5726 5725 5724 5723 5722 5721 5721
5745 5745 5746 5746 5747 5748 5748 5749 5749 5751 5752 5752 5753 5753 5754 5754 5754 5754 5754 5754 5755 5755 5756 5756 5756 5756 5756 5755 5755 5754 5753 5753 5753 5752 5752 5751 5751 5750 5750 5750 5749 5749 5749 5749 5749 5748 5748 5748 5747 5746 5746 5746 5745 5745 5744 5743 5743 5742 5741 5740 5739 5738 5737 5736 5736 5735 5734 5734 5732 5730 5729 5728 5727 5725 5724 5724 5722 5722 5721 5720 5719 5718 5717 5716 5715
5743 5743 5743 5744 5744 5744 5745 5745 5746 5747 5748 5749 5750 5750 5750 5751 5751 5751 5751 5751 5751 5752 5752 5753 5753 5753 5752 5752 5751 5751 5750 5750 5749 5749 5748 5748 5747 5747 5746 5746 5745 5745 5745 5744 5744 5744 5744 5743 5743 5742 5742 5741 5741 5740 5740 5739 5739 5738 5737 5736 5735 5734 5733 5732 5731 5730 5729 5728 5727 5725 5723 5722 5722 5720 5719 5718 5717 5716 5715 5714 5713 5712 5711 5710 5709
5740 5740 5741 5741 5741 5741 5742 5742 5743 5744 5745 5745 5746 5746 5747 5747 5747 5747 5747 5748 5748 5749 5749 5749 5749 5749 5748 5748 5747 5747 5746 5746 5745 5745 5744 5744 5743 5743 5742 5742 5741 5741 5741 5740 5740 5739 5739 5739 5738 5738 5737 5736 5736 5736 5735 5734 5734 5733 5732 5731 5731 5729 5728 5727 5725 5724 5723 5722 5722 5721 5719 5718 5717 5715 5714 5712 5711 5710 5709 5708 5707 5706 5705 5704 5702
5737 5738 5738 5738 5738 5738 5739 5739 5740 5740 5741 5742 5742 5743 5743 5743 5744 5744 5744 5744 5744 5745 5745 5745 5745 5745 5744 5743 5743 5743 5742 5742 5741 5741 5740 5739 5739 5738 5738 5737 5737 5736 5736 5735 5735 5734 5734 5734 5733 5733 5733 5732 5732 5731 5731 5730 5729 5728 5727 5726 5725 5724 5723 5722 5720 5718 5717 5717 5716 5715 5714 5713 5711 5710 5708 5707 5705 5704 5703 5702 5701 5700 5699 5697 5696
5735 5735 5736 5736 5736 5735 5736 5736 5736 5737 5737 5738 5738 5739 5739 5739 5740 5740 5740 5740 5741 5741 5741 5740 5740 5740 5739 5739 5738 5738 5738 5737 5736 5736 5736 5735 5734 5733 5732 5732 5732 5731 5731 5730 5729 5729 5729 5729 5728 5728 5728 5727 5727 5727 5726 5726 5725 5724 5723 5722 5720 5719 5717 5716 5715 5713 5712 5711 5711 5710 5709 5707 5706 5704 5702 5700 5699 5698 5697 5695 5694 5693 5692 5691 5689
5732 5732 5733 5733 5733 5732 5732 5733 5733 5733 5734 5734 5735 5735 5735 5735 5735 5735 5736 5736 5735 5735 5735 5735 5735 5734 5734 5733 5733 5733 5733 5732 5732 5732 5731 5731 5729 5728 5727 5727 5727 5726 5725 5724 5724 5724 5723 5723 5723 5723 5722 5722 5721 5721 5721 5720 5720 5719 5718 5717 5715 5714 5712 5711 5710 5707 5706 5706 5705 5704 5703 5702 5700 5698 5696 5694 5692 5691 5689 5688 5688 5686 5685 5684 5683
5728 5728 5729 5729 5729 5729 5729 5729 5729 5729 5730 5731 5731 5731 5731 5731 5731 5731 5731 5730 5730 5730 5730 5729 5729 5728 5728 5728 5728 5728 5728 5727 5727 5727 5727 5726 5725 5722 5721 5722 5721 5721 5720 5719 5718 5718 5717 5717 5717 5716 5716 5716 5715 5715 5714 5714 5713 5713 5712 5711 5709 5708 5707 5705 5703 5701 5700 5700 5699 5698 5696 5695 5694 5692 5690 5688 5686 5684 5682 5681 5680 5679 5678 5677 5676
5724 5724 5725 5726 5726 5726 5726 5726 5725 5725 5725 5726 5727 5726 5726 5726 5726 5726 5726 5725 5725 5725 5724 5724 5723 5723 5722 5722 5722 5722 5722 5722 5722 5722 5722 5722 5720 5718 5717 5716 5715 5715 5714 5713 5713 5712 5712 5711 5711 5710 5710 5709 5709 5708 5708 5707 5706 5705 5704 5704 5703 5702 5700 5698 5697 5695 5694 5693 5692 5690 5689 5688 5687 5685 5683 5681 5679 5677 5675 5675 5674 5672 5671 5670 5669
5720 5721 5722 5722 5722 5722 5722 5722 5722 5721 5721 5721 5722 5721 5721 5721 5721 5721 5721 5721 5720 5720 5720 5719 5718 5718 5717 5717 5716 5716 5716 5716 5716 5716 5716 5716 5715 5714 5712 5711 5710 5709 5708 5708 5707 5706 5706 5705 5705 5704 5704 5703 5702 5702 5701 5700 5699 5698 5697 5696 5695 5694 5693 5691 5690 5689 5687 5686 5685 5683 5682 5681 5680 5678 5677 5674 5672 5670 5669 5668 5667 5665 5664 5663 5661
5715 5716 5716 5717 5717 5717 5717 5717 5717 5717 5716 5716 5716 5715 5715 5715 5715 5715 5715 5715 5716 5715 5715 5715 5714 5713 5712 5711 5711 5711 5710 5710 5710 5709 5710 5710 5710 5709 5707 5705 5705 5703 5702 5702 5702 5701 5700 5699 5698 5698 5697 5697 5696 5695 5694 5693 5693 5692 5691 5690 5688 5687 5686 5685 5684 5682 5680 5679 5678 5677 5675 5674 5673 5671 5670 5669 5666 5663 5662 5661 5660 5658 5657 5656 5654
5710 5710 5710 5710 5710 5710 5711 5710 5711 5710 5710 5709 5709 5708 5708 5708 5708 5708 5708 5709 5710 5710 5710 5710 5709 5708 5706 5705 5705 5704 5704 5703 5703 5702 5703 5704 5705 5704 5702 5700 5699 5698 5696 5696 5695 5694 5693 5692 5692 5691 5690 5690 5689 5688 5687 5686 5686 5685 5684 5683 5681 5680 5680 5679 5677 5676 5674 5672 5672 5671 5669 5667 5666 5664 5663 5662 5660 5658 5656 5654 5652 5650 5648 5647 5646